Probability
0 0 0 0 0 0 0 0 0 0 0 0 0 0 0 0 0 0 0 0 0 0 0 0 0 0 0 0 0 0 0 0 0 0 0 0 0 0 0 0 0 0 0
0 0 0 0 0 0 0 0 0 0 0 0 0 0 0 0 0 0 0 0 0 0 0 0 0 0 0 0 0 0 0 0 0 0 0 0 0 0 0 0 0 0 0
0 0 0 0 0 0 0 0 0 0 0 0 0 0 0 0 0 0 0 0 0 0 0 0 0 0 0 0 0 0 0 0 0 0 0 0 0 0 0 0 0 0 0
0 0 0 0 0 1 1 2 2 1 0 0 0 0 0 0 0 0 0 0 0 0 0 0 0 0 0 0 0 0 0 0 0 0 0 0 0 0 0 0 0 0 0
0 0 0 0 0 1 2 3 3 2 0 0 0 0 0 0 0 0 0 0 0 0 0 0 0 0 0 0 0 0 0 0 0 0 0 0 0 0 0 0 0 0 0
0 0 0 0 0 0 2 3 2 1 0 0 0 0 0 0 0 0 0 0 0 0 0 0 0 0 0 0 0 0 0 0 0 0 0 0 0 0 0 0 0 0 0
0 0 0 0 0 1 2 2 1 0 0 0 0 0 0 0 0 0 0 0 0 0 0 0 0 0 0 0 0 0 0 0 0 0 0 0 0 0 0 0 0 0 0
0 0 0 0 0 1 1 1 0 0 0 0 0 0 0 0 0 0 0 0 0 0 0 0 0 0 0 0 0 0 0 0 0 0 0 0 0 0 0 0 0 0 0
0 0 0 0 0 0 0 0 0 0 0 0 0 0 0 0 0 0 0 0 0 0 0 0 0 0 0 0 0 0 0 0 0 0 0 0 0 0 0 0 0 0 0
0 0 0 0 0 0 0 0 0 0 0 0 0 0 0 0 0 0 0 0 0 0 0 0 0 0 0 0 0 0 0 0 0 0 0 0 0 0 0 0 0 0 0
0 0 0 0 0 0 0 0 0 0 0 0 0 0 0 0 0 0 0 0 0 0 0 0 0 0 0 0 0 0 0 0 0 0 0 0 0 0 0 0 0 0 0
0 0 0 0 0 0 0 0 0 0 0 0 0 0 0 0 0 0 0 0 0 0 0 0 0 0 0 0 0 0 0 0 0 0 0 0 0 0 0 0 0 0 0
0 0 0 0 0 0 0 0 0 0 0 0 0 0 0 0 0 0 0 0 0 0 0 0 0 0 0 0 0 0 0 0 0 0 0 0 0 0 0 0 0 0 0
0 0 0 0 0 0 0 0 0 0 0 0 0 0 0 0 0 0 0 0 0 0 0 0 0 0 0 0 0 0 0 0 0 0 0 0 0 0 0 0 0 0 0
0 0 0 0 0 0 0 0 0 0 0 0 0 0 0 0 0 0 0 0 0 0 0 0 0 0 0 0 0 0 0 0 0 0 0 0 0 0 0 0 0 0 0
0 0 0 0 0 0 0 0 0 0 0 0 0 0 0 0 0 0 0 0 0 0 0 0 0 0 0 0 0 0 0 0 0 0 0 0 0 0 0 0 0 0 0
0 0 0 0 0 0 0 0 0 0 0 0 0 0 0 0 0 0 0 0 0 0 0 0 0 0 0 0 0 0 0 0 0 0 0 0 0 0 0 0 0 0 0
0 0 0 0 0 0 0 0 0 0 0 0 0 0 0 0 0 0 0 0 0 0 0 0 0 0 0 0 0 0 0 0 0 0 0 0 0 0 0 0 0 0 0
0 0 0 0 0 0 0 0 0 0 0 0 0 0 0 0 0 0 0 0 0 0 0 0 0 0 0 0 0 0 0 0 0 0 0 0 0 0 0 0 0 0 0
0 0 0 0 0 0 0 0 0 0 0 0 0 0 0 0 0 0 0 0 0 0 0 0 0 0 0 0 0 0 0 0 0 0 0 0 0 0 0 0 0 0 0
0 0 0 0 0 0 0 0 0 0 0 0 0 0 0 0 0 0 0 0 0 0 0 0 0 0 0 0 0 0 0 0 0 0 0 0 0 0 0 0 0 0 0
0 0 0 0 0 0 0 0 0 0 0 0 0 0 0 0 0 0 0 0 0 0 0 0 0 0 0 0 0 0 0 0 0 0 0 0 0 0 0 0 0 0 0
0 0 0 0 0 0 0 0 0 0 0 0 0 0 0 0 0 0 0 0 0 0 0 0 0 0 0 0 0 0 0 0 0 0 0 0 0 0 0 0 0 0 0
0 0 0 0 0 0 0 0 0 0 0 0 0 0 0 0 0 0 0 0 0 0 0 0 0 0 0 0 0 0 0 0 0 0 0 0 0 0 0 0 0 0 0
0 0 0 0 0 0 0 0 0 0 0 0 0 0 0 0 0 0 0 0 0 0 0 0 0 0 0 0 0 0 0 0 0 0 0 0 0 0 0 0 0 0 0
0 0 0 0 0 0 0 0 0 0 0 0 0 0 0 0 0 0 0 0 0 0 0 0 0 0 0 0 0 0 0 0 0 0 0 0 0 0 0 0 0 0 0
Wind_Speed
10 10 10 10 10 11 11 12 11 11 11 12 12 12 12 11 11 11 11 12 12 11 11 12 12 10 8 7 7 7 7 6 6 4 3 5 8 8 7 6 6 6 6
11 11 10 11 10 11 12 11 11 11 11 12 12 12 12 12 11 12 12 11 12 12 12 12 12 9 10 8 7 8 7 7 6 6 5 5 7 8 7 7 5 4 4
10 11 11 11 11 12 12 11 10 11 11 11 11 12 12 12 12 12 12 12 12 12 12 13 12 11 11 8 9 8 7 6 6 6 5 5 5 6 7 5 5 4 4
10 11 11 11 11 12 11 11 11 10 11 11 11 12 12 12 12 11 10 10 11 11 11 12 12 12 11 11 9 9 7 6 7 6 5 5 5 6 6 6 5 4 4
10 11 11 11 11 11 10 10 10 10 10 10 11 11 11 10 10 10 9 9 9 10 9 11 11 12 12 10 8 8 8 6 6 6 6 5 6 7 7 5 5 5 3
10 10 10 10 10 10 10 10 10 10 9 10 10 11 11 8 9 11 9 9 9 10 10 9 9 10 10 10 11 10 10 10 9 8 6 8 8 8 7 7 6 5 4
10 10 10 10 10 10 10 10 10 9 9 10 10 10 10 9 10 11 10 9 9 9 9 8 7 7 9 8 8 8 8 9 10 9 9 9 9 9 10 9 8 6 4
9 10 10 10 10 10 10 10 10 9 8 9 10 9 9 9 11 11 9 9 8 8 8 8 8 8 8 8 8 6 6 5 7 6 7 7 7 8 9 8 8 6 5
10 11 10 11 10 10 10 10 9 8 9 8 8 8 8 8 11 11 9 7 6 7 7 7 9 9 10 10 8 7 6 4 4 6 6 7 9 11 10 8 8 6 4
10 11 11 10 10 11 11 10 9 8 8 7 7 7 7 7 10 10 10 6 6 5 5 6 9 10 11 10 9 9 9 6 6 6 7 8 8 9 9 6 7 6 5
10 11 11 11 10 10 10 9 8 8 8 7 6 5 5 5 8 10 10 6 6 6 5 5 5 10 10 10 8 8 10 8 7 7 6 6 5 5 4 4 3 4 4
10 10 11 11 10 8 9 9 8 7 7 6 4 3 3 3 5 7 8 8 6 6 5 5 5 9 8 8 7 10 12 9 6 6 6 5 5 5 5 5 6 5 5
10 10 10 11 10 9 9 8 7 6 5 4 4 3 2 2 3 5 7 7 6 4 4 6 7 9 8 6 9 12 10 7 7 7 6 5 5 6 7 6 7 8 8
11 10 10 9 9 9 7 6 5 6 6 5 4 3 2 2 2 3 3 4 5 4 5 7 9 9 7 7 8 7 5 5 6 6 6 6 6 6 6 6 6 6 6
11 10 9 8 8 8 7 6 7 7 7 6 4 3 3 3 3 3 3 3 3 4 4 4 4 4 4 4 4 4 5 5 6 6 7 7 7 7 6 5 5 5 4
9 9 7 7 6 6 7 7 7 7 9 9 7 6 3 3 2 3 3 4 6 8 5 5 5 5 5 5 6 5 5 5 6 7 7 7 8 8 7 6 5 5 6
9 9 7 7 6 6 6 5 6 6 6 5 4 4 4 4 3 3 4 5 7 7 4 5 5 5 5 5 5 6 5 5 6 7 7 8 8 8 8 7 6 6 6
8 8 8 6 6 5 5 5 5 5 5 4 2 1 3 3 3 4 5 4 4 4 4 5 5 5 5 5 6 6 6 6 6 7 7 8 8 8 8 7 7 7 7
7 6 6 6 5 5 5 4 4 5 4 4 2 1 2 2 3 4 3 3 4 3 3 4 5 5 5 5 6 6 6 6 7 7 7 8 8 8 8 7 7 9 7
6 8 8 6 5 5 4 4 4 4 4 3 2 1 1 1 2 2 1 2 2 3 3 3 4 5 5 6 7 7 6 6 7 7 8 8 8 8 9 9 8 8 6
6 6 8 6 5 4 4 4 4 3 3 3 2 2 1 1 1 1 1 1 2 3 3 3 4 5 5 6 7 7 8 7 7 7 8 8 8 8 8 7 8 7 7
5 5 5 4 4 4 4 3 3 3 3 3 2 1 1 1 1 1 1 1 1 1 2 3 4 4 5 6 7 8 8 7 8 8 8 8 8 8 8 8 8 7 8
5 5 5 4 4 5 4 3 3 3 3 3 2 2 1 1 1 1 1 1 1 1 2 3 4 4 4 4 5 7 8 8 8 10 10 9 9 9 8 9 10 9 8
6 6 5 4 4 4 4 3 3 3 2 2 2 2 1 1 1 1 1 1 2 2 2 2 4 5 6 6 5 5 6 7 8 9 11 10 10 9 9 9 9 10 9
5 5 5 4 4 4 3 3 3 2 2 2 2 2 1 1 1 1 1 2 3 3 3 3 4 5 7 8 8 7 11 12 11 10 9 9 10 10 10 10 9 9 9
5 5 4 4 3 3 3 3 2 2 2 2 2 2 2 1 1 1 2 3 3 3 3 4 5 6 8 8 10 13 15 15 15 14 10 9 10 10 10 9 11 10 10
Wind_Direction
284 282 281 279 277 275 273 268 268 268 259 251 249 247 243 239 234 228 226 223 222 222 218 215 214 210 204 203 202 210 210 207 201 190 188 175 177 177 174 178 177 181 176
287 284 282 282 280 278 276 274 272 271 264 252 249 248 243 236 231 228 225 222 221 219 216 211 211 206 205 202 203 207 203 201 194 186 181 176 182 177 171 171 172 176 177
290 287 282 282 283 281 278 279 274 272 270 257 249 249 243 235 231 226 221 222 221 220 216 210 207 202 203 201 204 203 195 193 189 178 179 169 165 164 166 165 169 171 170
291 287 285 285 285 284 282 283 277 272 269 263 253 250 240 231 228 222 217 220 223 220 217 211 206 202 201 202 202 198 188 185 181 173 172 166 162 161 165 170 174 173 168
292 288 287 289 287 285 285 284 278 271 267 265 260 251 238 228 220 214 214 217 220 218 218 213 207 202 204 205 199 191 187 187 180 175 174 168 170 169 177 172 172 158 163
296 292 292 291 291 289 288 285 279 273 270 268 263 251 236 225 212 212 216 220 218 214 212 209 202 195 198 199 193 194 195 193 188 183 184 183 188 181 167 166 161 164 174
303 299 296 296 295 295 292 288 281 273 270 268 266 252 235 221 206 209 218 221 215 211 207 201 197 193 192 193 181 184 198 198 193 188 188 192 186 180 170 170 174 171 159
304 305 305 301 298 299 295 289 285 276 270 266 262 249 237 217 202 205 211 213 211 208 202 198 193 194 195 186 180 184 187 195 193 189 190 187 180 171 171 168 157 129 103
306 307 307 306 303 299 296 293 291 286 278 270 261 251 238 219 198 199 200 203 202 202 198 197 192 194 184 173 175 175 168 160 124 129 133 136 143 149 150 140 144 144 141
305 304 305 304 303 298 296 296 295 292 282 279 265 249 236 223 199 192 194 192 192 190 189 193 192 189 180 177 178 175 172 167 147 126 118 113 125 137 144 154 159 158 141
303 302 302 303 304 301 300 297 297 297 290 282 272 249 225 218 198 192 192 189 185 184 186 191 186 170 174 177 179 181 171 159 147 139 134 130 125 127 125 111 116 147 144
301 301 303 305 305 303 302 301 299 296 288 282 271 254 223 209 199 189 188 190 187 186 189 186 173 164 167 170 172 158 149 146 146 142 141 144 141 135 123 108 95 79 72
300 301 303 304 304 303 301 300 301 298 282 277 267 251 231 208 183 174 177 177 179 185 179 165 163 159 154 156 153 151 150 153 151 149 151 150 140 133 125 112 100 92 79
299 301 301 301 302 303 300 296 298 298 288 280 272 256 233 209 187 168 163 154 149 151 142 133 136 140 145 148 151 152 156 157 154 150 144 137 132 133 133 131 126 120 104
296 297 298 296 298 299 296 291 289 283 283 278 268 258 232 223 214 199 192 184 174 160 147 139 145 148 152 154 152 149 145 146 143 142 142 142 141 138 134 132 128 124 122
292 294 294 295 294 295 298 299 289 282 290 279 268 262 256 226 208 204 191 184 171 163 156 159 163 164 166 165 158 151 148 150 148 146 146 148 147 143 136 131 129 129 128
287 288 289 289 289 291 295 301 309 315 310 289 271 255 223 201 191 180 168 168 172 169 165 169 170 168 166 164 162 159 153 150 149 147 148 147 143 141 140 139 139 133 128
290 289 288 287 287 287 292 294 294 302 312 311 293 208 185 186 178 165 157 151 166 174 172 171 170 167 165 165 159 151 146 145 148 146 144 143 143 144 144 144 144 140 136
290 289 288 286 285 284 285 286 288 291 292 297 286 147 148 151 152 160 165 168 170 173 169 170 169 167 164 160 154 150 150 150 150 145 143 144 146 145 144 143 139 139 134
286 288 288 285 285 284 282 282 283 285 290 291 280 220 145 132 139 147 149 153 162 168 164 166 168 164 159 156 153 151 150 150 149 145 145 145 146 146 144 143 143 142 136
288 288 286 279 278 281 283 283 283 281 284 286 286 279 234 210 196 188 169 158 172 174 166 163 159 156 159 156 153 153 152 152 149 145 146 145 144 142 141 141 139 134 130
281 280 280 276 274 277 280 281 281 280 280 279 289 294 251 235 205 188 170 175 182 177 162 156 153 155 160 161 157 156 155 152 150 147 144 143 142 141 140 139 136 134 133
276 275 275 273 270 271 272 269 269 270 271 269 273 274 253 244 217 198 179 176 164 155 146 143 144 144 144 144 151 158 159 158 156 151 145 143 142 143 142 140 139 139 139
270 268 265 262 262 262 263 265 266 264 264 266 270 275 265 256 231 203 192 171 150 136 128 134 140 142 142 141 142 142 141 141 143 145 143 142 141 140 139 139 139 140 139
267 262 258 255 255 259 262 265 263 255 252 256 258 261 254 236 222 191 166 144 133 126 125 131 134 136 140 139 138 137 136 135 137 136 137 136 136 136 137 136 136 136 135
264 260 254 251 249 252 255 253 251 247 246 250 250 251 246 220 199 175 151 137 132 129 127 126 129 133 135 132 132 135 135 133 133 133 134 133 134 136 136 134 135 134 134